Погода в Фельдкирхе

Австрия     47°14′28″N   9°36′06″E
темп.,
°C
ветер,
м/с
пор.,
м/с
влажн.,
%
обл.,
%
осадки,
мм/ч
давл.,
гПа
погр.,
м
2 августа, пн
пн223:00+10юз1195100 0.1 101626
02:00+9ююз219551 0.2 101622
05:00+8ююз229580 0.0 101634
08:00+10ююз119182 0.0 101776
11:00+15ссв117026 0.4 1016908
14:00+17с226813 1.6 10151146
17:00+16с227643 1.9 1015670
20:00+13сз11895 3.2 101612
3 августа, вт
вт323:00+9ююз229560 0.3 101929
02:00+8ю229546 0.3 101841
05:00+8ю3395100 0.0 101850
08:00+11ю2392100 0.0 1017101
11:00+16ююв1162100 0.0 1015537
14:00+17с226998 1.1 10141126
17:00+15с1286100 2.1 1015280
20:00+11сз1197100 6.1 101618
4 августа, ср
ср423:00+11св1198100 1.1 101753
02:00+10св1199100 1.2 101733
05:00+10юв1198100 0.0 101537
08:00+10юв1197100 0.2 101632
11:00+11юв1197100 0.4 101592
14:00+11юв0198100 2.5 101598
17:00+11ююз1198100 2.8 101473
20:00+11ю1198100 9.9 101436
5 августа, чт
чт523:00+11ююв1197100 4.4 101527
02:00+10ю2398100 6.9 101470
05:00+10ююв2298100 2.1 101374
08:00+11ю119596 2.9 101395
11:00+11св1196100 0.8 1014114
14:00+15с2282100 2.0 1013830
17:00+14ссз2291100 2.8 1012533
20:00+13ссз11955 4.6 101314
6 августа, пт
пт623:00+9ююз119718 0.1 101413
02:00+8ю229786 0.1 101435
05:00+9ю3396100 0.0 101258
08:00+11ю3494100 0.0 1012113
11:00+18ссз115716 0.0 1011961
14:00+19с325643 0.0 10101339
17:00+20с326135 0.1 10101141
20:00+16с228773 0.1 101130